Regional Weather Roundup
Issued by NWS Newport/Morehead, NC

Current Version | Previous Version | Text Only | Print | Product List | Glossary On
Versions: 1 2 3 4 5 6 7 8 9 10 11 12 13 14 15 16 17 18 19 20 21 22 23 24 25 26 27 28 29 30 31 32 33 34 35 36 37 38 39 40 41 42 43 44 45 46 47 48 49 50
000 ASUS42 KMHX 281522 RWRMHX WEATHER ROUNDUP FOR EASTERN NORTH CAROLINA NATIONAL WEATHER SERVICE NEWPORT/MOREHEAD CITY NC 1000 AM EST FRI NOV 28 2014 NOTE: "FAIR" INDICATES FEW OR NO CLOUDS BELOW 12,000 FEET WITH NO SIGNIFICANT WEATHER AND/OR OBSTRUCTIONS TO VISIBILITY NCZ015>017-031-032-045>047-102-103-281600- NORTH COAST CITY SKY/WX TMP DP RH WIND PRES REMARKS EDENTON N/A 40 27 59 N14G21 30.34S ELIZABETH CITY SUNNY 42 25 50 NW17G26 30.32S KITTY HAWK SUNNY 41 27 57 NW10G21 30.28S MANTEO SUNNY 41 27 57 N17G24 30.31R $$ NCZ045>047-081-094-103-104-281600- CENTRAL COAST CITY SKY/WX TMP DP RH WIND PRES REMARKS FRISCO SUNNY 41 30 65 N10G23 30.30R SWANQUARTER N/A 41 N/A N/A VRB9G18 30.30S $$ NCZ095-097-098-100-101-281600- SOUTHERN COAST CITY SKY/WX TMP DP RH WIND PRES REMARKS BEAUFORT SUNNY 41 27 57 N13G21 30.33R CEDAR ISLAND N/A 41 N/A N/A N17G30 30.36S JACKSONVILLE SUNNY 41 24 51 N16 30.35R PINEY ISLAND SUNNY 43 24 47 N20G29 30.32S WILMINGTON SUNNY 40 24 53 N14 30.36R $$ NCZ011>013-027>030-043-044-078>080-089-090>093-098-281600- COASTAL PLAIN CITY SKY/WX TMP DP RH WIND PRES REMARKS AHOSKIE SUNNY 38 25 60 NW5 30.35S CLINTON SUNNY 40 26 56 NW9 30.38S ELIZABETHTOWN SUNNY 40 24 53 N7 30.38R GOLDSBORO SUNNY 40 26 56 NW12G17 30.35R GREENVILLE SUNNY 39 27 60 N8 30.37R HAVELOCK SUNNY 41 26 55 N15 30.35R KENANSVILLE SUNNY 40 23 51 N8G16 30.38R KINSTON SUNNY 41 25 52 N13 30.37R NEW BERN SUNNY 41 26 55 N14 30.36R RICHLANDS SUNNY 39 21 48 N8 30.36S ROCKY MOUNT SUNNY 40 23 50 NW8 30.37R WASHINGTON SUNNY 39 25 56 N8 30.36R WHITEVILLE SUNNY 40 24 52 N6 30.37S $$ AMZ130-135-150-152-154-156-158-170-250-252-270-ANZ085-086-088-633-658-670-281600- MARINE OBSERVATIONS STATION/POSITION TIME TEMP WIND PRES WAVE SWELL AIR SEA DIR/SP/G HT/PER HT/PER (UTC) (F) (DEG/KT/KT) (MB) (FT/S) (FT/S) CHESAPEAKE LIGHT 1500 39 330/ 24/ 27 1025.9 64 E VA BEACH 1500 44 64 340/ 21/ 29 1023.7 7/ 7 2/11 DUCK 1500 40 53 340/ 24/ 28 1024.7 2 E DUCK 1500 54 N/A 6/ 6 2/13 10 NE DUCK 1500 56 N/A 7/ 7 2/13 OREGON INLET 1500 41 52 320/ 14/ 19 1025.7 13E OREGON INLT 1500 60 N/A 7/ 7 2/13 HATTERAS CG 1500 42 52 340/ 21/ 25 1026.3 DIAMOND BUOY 1400 45 330/ 21/ 29 1024.2 6/ 6 2/13 17 S OCRACOKE NOT AVBL CAPE LOOKOUT 1500 41 360/ 15/ 18 1026.7 BEAUFORT LAB 1500 40 53 360/ 12/ 17 1026.2 30 SE NEW RIVER 1500 43 66 10/ 19/ 25 1026.8 6/ 5 2/13 5 SE WRIGHTSVLE 1500 41 58 360/ 19/ 23 1027.4 225 S CAPE HAT 1401 58 72 330/ 19/ 27 1022.8 10/ 9 41 SE CHARLESTON 1500 47 72 10/ 17/ 23 1027.0 6/ 7 2/ 9 $$

USA.gov is the U.S. government's official web portal to all federal, state and local government web resources and services.